Location: Gajan
(43.0218°N, 1.1244°E)
Time: 07:39:45
(UTC+00:00)

USA 229 DEB - Pass Details

Date: 22 April 2021
Orbit: 960 x 1252 km, 63.4° (Epoch: 23 April)

Event Time Altitude Azimuth Distance (km) Brightness Sun altitude
Rises 22:16:26 0° 323° (NW) 3,972 7.8 -30.2°
Reaches altitude 10° 22:19:04 10° 324° (NW) 3,050 7.0 -30.4°
Maximum altitude 22:26:28 85° 54° (NE) 1,211 3.8 -31.0°
Enters shadow 22:27:01 78° 118° (ESE) 1,233 3.8 -31.0°
